Miscellaneous Local Product
Issued by NWS North Platte, NE

Home | Current Version | Previous Version | Text Only | Print | Product List | Glossary On
Versions: 1 2 3 4 5 6 7 8 9 10 11 12 13 14 15 16 17 18 19 20 21 22 23 24 25 26 27 28 29 30 31 32 33 34 35 36 37 38 39 40 41 42 43 44 45 46 47 48 49 50
815
AXUS43 KLBF 250510
MISLBF


WESTERN AND NORTH CENTRAL NEBRASKA HOURLY WEATHER ROUNDUP
NATIONAL WEATHER SERVICE NORTH PLATTE NE
1200 AM CDT SUN JUN 25 2017

NOTE: "FAIR" INDICATES FEW OR NO CLOUDS BELOW 12,000 FEET WITH NO
SIGNIFICANT WEATHER AND/OR OBSTRUCTIONS TO VISIBILITY.

NOTE: STATIONS NOT REPORTING VARIABLES SUCH AS SKY/WEATHER OR
PRESSURE ARE PROVIDED BY RAWS AND APRS NETWORKS AND ARE NOT UNDER
NATIONAL WEATHER SERVICE QUALITY CONTROL.

...OBSERVATIONS IN AND NEAR THE EASTERN PANHANDLE OF NEBRASKA...

CITY           SKY/WX    TMP DP  RH WIND       PRES   REMARKS
PINE RIDGE     MOCLDY    51  39  63 E6        30.34R
GORDON         MOCLDY    51  39  63 CALM      30.34R
CHADRON        PTCLDY    54  40  59 N6        30.33R
ALLIANCE       CLEAR     54  39  57 E8        30.33R
SIDNEY         CLEAR     52  38  58 E7        30.35S
CRESCENT LAKE    N/A     59  39  47 SE3         N/A
$$

...OBSERVATIONS IN NORTHERN NEBRASKA AND FAR SOUTHERN SOUTH DAKOTA...

CITY           SKY/WX    TMP DP  RH WIND       PRES   REMARKS
WINNER         FAIR      57  37  47 CALM      30.30R
VALENTINE      CLEAR     58  30  34 NE8       30.31R
THEDFORD       CLEAR     58  36  42 CALM      30.32R
AINSWORTH      CLEAR     53  36  52 NE6       30.31R
O`NEILL        CLEAR     55  38  53 N6        30.29R
ORD            CLEAR     50  41  71 NW3       30.26R
BROKEN BOW     CLEAR     51  42  71 N8        30.28R
VALENTINE NWR    N/A     58  36  44 NE5         N/A
HALSEY           N/A     58  33  39 CALM        N/A
BUTTE            N/A     56  40  54 NE5         N/A
CHAMBERS         N/A     57  33  41 CALM        N/A
EWING            N/A     56  40  54 CALM        N/A
$$

...OBSERVATIONS IN SOUTHWEST NEBRASKA AND FAR NORTHEAST COLORADO...

CITY           SKY/WX    TMP DP  RH WIND       PRES   REMARKS
WRAY           FAIR      61  46  59 CALM      30.33R
IMPERIAL       CLEAR     54  46  74 E9        30.32R
OGALLALA       CLEAR     53  38  55 CALM      30.32S
NORTH PLATTE   CLEAR     49  40  71 CALM      30.30R
MCCOOK         PTCLDY    58  51  78 N5        30.30R
LEXINGTON      CLEAR     54  43  68 CALM      30.28S
STAPLETON        N/A     58  40  52 CALM        N/A
GOTHENBURG       N/A     60  41  49 CALM        N/A
CALLAWAY         N/A     56  47  71 CALM        N/A
$$

...OBSERVATIONS IN CENTRAL LINCOLN COUNTY AREA...

CITY           SKY/WX    TMP DP  RH WIND       PRES   REMARKS
N.P. AIRPORT   CLEAR     49  40  71 CALM      30.30R
N.P. DOWNTOWN    N/A     58  41  53 CALM        N/A
N.P. SOUTHEAST   N/A     57  38  49 CALM        N/A
N.P. HILLCREST   N/A     60  37  43 CALM        N/A
$$

...SOME OBSERVATIONS FROM AROUND THE REGION...

CITY           SKY/WX    TMP DP  RH WIND       PRES   REMARKS
DENVER         CLOUDY    63  48  58 E17       30.35R
LIMON          CLOUDY    54  44  69 CALM      30.35S
ASPEN          CLOUDY    53  29  39 S8        30.39R
LARAMIE        CLEAR     52  34  50 SE8       30.43R
CASPER         CLOUDY    59  33  37 E12       30.38R
CHEYENNE       CLEAR     56  38  50 SE7       30.40S
SCOTTSBLUFF    CLOUDY    57  41  55 NE6       30.33R
GRAND ISLAND   CLEAR     57  44  62 W6        30.26R
OMAHA          CLEAR     60  46  59 N5        30.20R
SIOUX FALLS    PTCLDY    52  45  77 NW7       30.21S
RAPID CITY     CLEAR     50  31  48 N9        30.35R
BISMARCK       CLEAR     51  39  63 W5        30.29S
KANSAS CITY    MOCLDY    64  50  60 SW7       30.20R
HILL CITY      CLOUDY    64  52  64 NE6       30.30R
WICHITA        MOCLDY    68  55  63 SE5       30.24R
DODGE CITY     CLOUDY    70  55  59 S8        30.27R
OKLAHOMA CITY  PTCLDY    73  55  53 SE9       30.24R
DALLAS         PTCLDY    75  63  66 E7        30.16R
AMARILLO       MOCLDY    65  62  90 SE10      30.30R
$$




USA.gov is the U.S. government's official web portal to all federal, state and local government web resources and services.